Location: Newark
(25.6108°S, 54.5803°W)
Time: 02:30:52
(UTC+00:00)

SR - Pass Details

Date: 05 November 2020
Orbit: 579 x 876 km, 66.7° (Epoch: 30 November)

Event Time Altitude Azimuth Distance (km) Brightness Sun altitude
Rises 00:33:07 0° 186° (S) 3,121 ? -31.7°
Reaches altitude 10° 00:36:07 10° 169° (S) 2,135 ? -32.2°
Enters shadow 00:36:53 13° 162° (SSE) 1,927 ? -32.3°
